Dewpoint
51 51 51 51 51 50 51 51 50 49 49 49 49 48 48 48 48 49 44 50 45 40 38 37 36 33 34 31 28 36 37 38 36 36 30 33 31 30 36 36 38 40 38 35 33 30 28 43 41 36 45 51 53 50
51 51 51 50 51 51 51 51 50 50 50 48 47 47 47 47 47 48 43 49 49 43 41 40 39 39 38 36 34 35 37 37 40 39 39 39 35 40 40 38 40 39 43 45 39 44 49 53 52 52 57 57 59 60
51 51 50 50 51 51 50 50 50 49 49 48 48 47 47 47 47 47 47 49 47 41 38 37 34 36 37 39 36 33 32 34 41 45 42 42 39 43 38 41 44 43 50 47 46 46 47 50 50 57 57 57 57 59
51 51 51 50 50 50 50 50 50 50 49 48 47 47 47 48 48 46 45 49 46 42 35 34 34 34 34 35 36 35 33 33 44 44 40 41 40 46 43 44 45 48 49 48 48 52 53 54 56 56 56 55 56 56
50 50 50 50 50 50 50 50 50 50 50 49 48 48 47 47 48 47 46 47 48 41 36 35 37 38 39 37 35 34 34 33 40 35 41 40 44 45 46 47 46 49 49 48 49 51 52 51 55 56 54 54 52 52
50 50 50 50 50 50 50 50 50 50 50 50 49 49 49 48 48 45 42 48 50 48 40 34 34 34 43 45 40 36 35 36 32 40 41 43 45 45 41 42 46 49 52 53 53 54 52 51 46 48 47 48 50 51
50 50 50 50 50 50 50 50 50 50 50 51 51 51 51 50 46 43 41 45 47 47 40 35 32 37 43 42 33 33 34 34 45 44 42 43 44 47 44 41 48 52 54 54 54 53 52 52 49 47 49 48 49 50
50 50 50 50 50 49 49 49 49 49 50 50 51 51 51 51 49 44 42 45 46 45 42 35 33 40 48 43 37 38 36 41 44 44 45 43 45 46 43 47 50 51 54 53 53 54 54 55 54 51 50 47 46 46
50 50 49 49 49 49 49 49 49 49 50 51 51 51 49 47 44 47 49 48 49 44 38 38 34 36 45 45 46 45 39 40 46 43 42 43 43 41 45 48 49 51 51 50 50 50 49 49 49 51 52 53 51 48
50 50 50 49 49 50 50 50 50 50 50 50 49 44 42 48 52 51 48 43 42 42 41 35 39 35 42 44 44 43 44 42 38 40 45 40 41 46 49 50 50 51 52 52 50 49 48 47 47 48 47 51 53 52
49 49 49 49 49 50 50 50 50 50 50 47 43 40 44 52 49 45 40 39 39 37 40 39 41 38 48 42 42 45 42 41 33 39 40 37 39 44 49 49 50 52 52 52 52 52 52 48 48 48 47 51 54 54
49 49 49 49 49 50 50 50 50 48 45 45 44 46 46 47 46 41 39 39 36 35 43 43 45 47 47 49 43 45 40 41 37 46 39 35 42 47 48 48 49 50 50 51 52 51 53 53 52 52 52 53 54 56
49 49 49 49 49 49 50 50 50 51 50 49 47 46 43 43 38 38 37 39 39 44 46 46 45 47 48 47 44 44 39 40 46 40 35 38 44 47 49 51 50 51 51 50 51 51 49 50 51 52 52 52 54 54
49 49 49 49 49 50 50 49 50 50 48 44 42 37 41 39 40 41 40 41 46 47 46 46 44 45 47 44 44 40 44 42 37 34 35 45 48 50 51 51 51 49 49 47 46 48 50 51 51 52 52 53 54 53
49 49 49 49 49 50 49 49 50 50 48 45 42 36 39 38 37 38 39 39 41 42 48 49 48 45 43 42 42 40 38 35 37 38 43 47 50 51 50 49 48 46 44 45 47 47 47 49 50 51 52 52 54 54
50 49 47 49 49 49 49 50 51 50 50 45 41 37 37 40 40 40 40 37 39 40 42 43 41 39 40 41 38 36 36 34 38 44 48 49 50 51 51 51 51 50 50 49 48 48 51 50 49 48 50 50 53 53
49 46 49 49 49 49 51 48 50 42 38 37 36 38 46 44 43 42 42 38 41 39 37 40 38 39 44 38 36 39 37 41 45 47 49 50 49 51 51 51 51 50 49 47 50 47 49 46 44 50 48 50 49 51
47 47 49 48 49 49 51 48 43 38 35 38 37 40 42 46 47 43 43 44 41 41 40 40 42 38 40 40 41 45 46 47 49 49 50 51 51 51 52 52 52 50 49 47 49 47 45 41 40 42 44 47 45 43
46 47 48 49 49 48 46 43 47 40 37 41 44 41 44 47 50 46 45 45 45 45 43 42 41 41 42 45 45 47 48 49 48 49 50 51 52 51 52 51 51 50 49 46 43 40 39 40 37 36 35 37 41 40
49 50 50 51 50 47 41 45 50 41 40 43 44 43 45 47 48 43 43 43 43 42 41 41 42 45 45 47 50 49 50 51 50 48 49 46 46 48 49 46 45 45 42 43 37 38 35 34 33 34 35 38 35 38
50 50 51 51 50 48 43 42 41 43 42 43 45 45 48 44 42 42 43 45 43 43 43 46 43 42 44 43 41 40 44 52 45 45 48 43 46 46 46 44 42 38 35 35 35 35 34 34 34 33 37 35 34 36
50 51 50 52 48 46 46 48 43 47 47 46 45 44 44 42 42 42 46 42 44 48 49 49 48 42 40 41 40 40 41 45 44 37 37 37 36 37 37 36 38 36 35 35 34 33 33 34 33 32 35 36 36 37
50 50 50 48 45 44 43 49 44 44 42 42 43 40 45 45 47 47 43 46 47 51 47 46 50 49 46 46 42 39 40 39 35 37 36 34 35 36 37 35 33 33 34 34 34 33 33 35 33 34 35 35 36 36
49 49 46 47 47 44 47 46 46 44 45 41 43 41 45 48 52 45 41 42 40 42 41 44 42 40 40 43 37 36 35 32 31 33 32 31 34 35 34 32 31 30 31 32 32 32 33 33 34 31 32 32 32 32
44 44 46 39 50 47 43 40 39 39 38 41 42 44 45 48 43 42 40 38 40 42 42 41 40 40 38 34 32 32 35 29 29 29 30 32 32 31 31 31 29 28 28 30 29 28 29 29 27 26 26 27 28 27
38 46 43 44 47 46 44 40 40 38 38 39 42 48 47 45 38 37 39 40 40 41 40 40 38 36 32 31 28 28 28 28 28 26 27 30 28 27 27 26 25 25 27 28 26 25 26 25 24 24 23 25 29 27
43 45 50 50 48 47 45 45 43 37 36 37 43 40 41 37 37 38 41 42 40 41 42 39 36 32 28 27 28 28 26 27 28 26 26 25 24 25 25 25 25 27 27 26 26 26 25 23 23 23 24 25 26 25
48 49 45 48 49 47 41 38 35 36 35 38 39 36 36 38 38 40 41 42 41 42 41 39 39 28 24 24 24 24 25 25 25 24 22 22 23 23 26 25 26 32 29 28 27 25 24 23 24 23 23 23 24 24
48 48 48 44 39 38 38 37 36 36 37 36 38 37 37 41 42 42 43 43 43 40 35 28 27 25 23 24 25 23 25 24 24 21 18 18 19 21 24 23 22 23 23 24 31 27 28 27 25 23 24 24 24 23
43 43 43 45 35 36 38 37 38 38 38 38 39 40 40 40 41 43 36 34 31 27 27 25 25 24 23 22 22 23 25 24 22 21 18 18 18 21 23 23 23 23 24 24 22 23 29 25 26 23 23 22 23 22
35 36 40 40 36 38 38 38 38 38 38 38 38 38 39 41 42 39 36 35 31 28 25 23 22 24 23 22 23 22 21 24 23 23 21 20 21 23 24 24 24 23 24 24 23 22 21 21 22 22 22 22 23 23
35 34 33 32 39 41 43 42 40 39 39 40 40 41 41 44 43 40 38 33 29 26 29 25 22 24 25 24 25 24 30 23 23 22 23 22 23 24 24 24 24 23 24 22 22 21 21 21 22 22 23 24 24 24
35 33 33 31 38 43 42 43 41 39 39 40 40 41 40 36 31 35 39 34 31 27 25 24 25 26 31 27 26 26 29 25 26 28 28 28 29 27 24 23 25 24 22 22 22 21 22 23 23 24 25 25 27 28
Lifted_Index
5 5 4 4 3 3 2 2 2 2 1 1 1 1 1 1 0 0 0 0 1 1 1 1 1 1 1 1 1 1 1 1 1 0 1 1 2 2 1 1 1 0 -0 -0 -1 -2 -2 -3 -3 -3 -3 -4 -4 -3
5 5 4 4 3 3 2 2 2 2 2 2 2 1 1 1 1 1 1 1 1 1 1 1 1 1 1 1 1 2 2 2 1 1 1 1 2 1 1 0 0 0 0 -0 -1 -2 -3 -3 -3 -4 -4 -4 -4 -4
5 5 5 4 4 3 3 3 3 2 2 2 2 2 2 2 2 1 1 1 1 2 1 1 1 1 1 1 2 2 2 2 2 2 1 1 1 1 0 -0 0 0 0 -0 -1 -2 -3 -3 -4 -4 -4 -4 -4 -4
6 5 5 4 4 4 3 3 3 3 3 3 3 3 2 2 2 2 2 2 2 2 2 2 2 1 1 1 2 2 2 3 3 2 2 2 2 1 0 0 0 0 0 -0 -1 -2 -2 -3 -3 -3 -3 -3 -3 -3
6 6 5 5 4 4 4 4 4 3 3 3 3 3 3 3 3 3 3 3 3 3 3 2 2 1 1 1 1 2 2 3 3 2 2 2 2 2 1 1 1 1 0 -0 -1 -1 -1 -1 -1 -1 -2 -2 -2 -2
6 6 6 5 5 5 5 5 4 4 3 3 3 3 3 4 4 4 4 4 3 3 3 3 2 1 1 0 1 2 2 2 2 2 2 2 2 2 2 2 1 1 0 -0 -1 -0 1 1 1 1 1 1 0 0
7 6 6 6 5 5 5 5 5 4 4 4 4 4 4 4 4 4 4 4 4 5 4 3 2 1 0 0 1 2 2 2 2 2 2 2 2 3 3 2 2 1 0 -0 -1 -0 1 2 3 3 3 3 2 2
7 7 6 6 6 6 6 6 5 5 4 4 4 4 3 4 4 4 4 5 5 5 5 3 2 1 1 1 1 1 2 2 2 2 2 3 2 2 2 2 1 1 1 0 -0 0 1 2 2 3 3 3 2 2
7 7 6 6 6 6 6 6 5 5 4 4 3 3 3 3 4 4 4 5 5 5 4 3 3 2 2 1 1 1 2 2 2 3 3 2 2 2 2 2 2 2 2 2 1 1 2 2 2 3 3 3 3 3
7 7 7 6 6 6 6 6 5 5 4 3 3 3 3 3 3 4 4 4 4 4 4 3 3 2 2 2 2 2 2 2 2 3 3 2 2 2 2 2 2 2 3 3 3 2 2 2 2 2 3 3 3 3
7 7 7 6 6 6 6 6 5 4 4 3 3 3 3 3 3 3 3 3 3 3 3 2 2 2 2 2 2 2 2 2 2 2 2 2 2 3 3 4 3 3 3 3 3 3 3 3 2 2 2 3 3 3
7 7 7 6 6 6 6 5 4 4 4 4 3 3 3 2 2 2 2 2 2 2 2 2 2 2 2 2 2 2 2 2 2 2 2 2 3 3 4 4 4 4 4 3 3 3 3 3 3 2 2 3 3 3
8 7 7 6 5 5 5 5 3 3 3 3 2 2 2 1 1 1 1 1 1 1 1 1 2 2 2 2 2 2 2 1 2 2 2 2 3 3 3 3 4 4 4 3 3 3 3 3 2 2 2 3 3 3
8 8 7 6 5 5 5 4 2 2 2 2 2 2 2 1 1 0 0 0 0 0 0 1 1 2 2 2 2 2 1 1 1 1 1 2 2 2 2 2 3 3 3 3 3 2 2 2 2 2 2 3 3 3
7 7 6 5 5 4 4 2 1 1 1 1 1 2 1 1 0 0 -0 -0 0 0 0 0 1 1 1 2 2 2 1 1 1 1 1 1 1 1 1 1 2 2 2 3 3 2 2 2 3 3 3 2 2 2
6 6 5 5 4 4 2 1 0 0 0 1 1 1 1 0 0 -0 -0 0 0 0 1 1 1 1 1 1 2 1 1 1 1 2 2 2 1 1 1 1 1 1 2 2 2 2 2 2 3 3 3 2 2 1
5 5 5 5 4 3 1 1 0 0 1 1 1 0 0 0 0 -0 -0 0 0 1 1 1 2 2 1 1 1 1 1 1 1 2 2 1 1 1 1 0 0 1 1 2 2 2 2 3 3 3 3 3 2 2
5 5 5 4 3 2 1 1 0 1 1 0 0 -0 -0 -0 -0 -0 -0 -0 0 1 1 1 2 2 1 1 1 1 1 1 1 1 1 1 1 0 0 0 0 1 2 2 2 2 3 3 4 4 4 4 4 3
4 4 4 3 3 2 1 1 1 1 0 -0 -0 -0 -0 -0 -0 -0 -0 0 0 1 1 2 2 2 2 1 1 1 1 1 1 1 1 1 1 1 0 1 1 2 3 3 3 4 4 4 4 5 5 5 5 5
4 4 3 3 2 2 2 1 1 1 0 -0 -0 -0 -0 -0 -0 0 0 0 1 1 2 2 3 3 2 2 2 2 1 1 1 1 1 1 1 1 1 2 3 3 4 4 5 5 5 5 6 6 6 6 6 6
3 3 2 2 1 2 2 1 1 1 1 0 -0 -0 0 0 0 0 1 1 1 1 2 2 2 3 3 4 3 3 2 2 2 2 2 2 2 2 2 3 3 4 4 5 6 6 6 6 7 7 7 7 7 7
3 2 1 1 1 1 1 1 1 0 0 0 -0 -0 0 0 1 1 1 1 1 1 1 1 1 2 3 4 4 4 3 3 3 3 3 3 3 3 3 3 4 4 5 5 6 6 7 7 7 7 7 7 7 7
3 2 1 -0 0 0 -0 -0 -0 -0 -0 -0 -0 -0 -0 -0 0 1 1 2 2 2 2 2 2 2 3 4 4 5 5 5 5 4 4 4 4 4 4 4 4 4 5 6 7 7 7 7 7 7 7 7 7 7
2 1 0 -0 -1 -1 -1 -1 -1 -1 -1 -1 -1 -0 -0 -0 0 1 2 2 3 3 3 3 3 3 3 4 5 6 6 6 6 6 6 5 5 5 5 6 6 6 6 7 7 8 8 8 8 8 8 8 8 8
0 0 -0 -1 -1 -1 -1 -1 -0 -1 -1 -1 -1 -0 0 0 0 1 2 3 3 3 3 3 3 4 4 5 6 7 7 7 7 7 7 7 6 6 6 7 7 7 8 9 9 9 9 9 9 9 9 10 10 9
-1 -1 -1 -1 -1 -1 -1 -1 -1 -0 -0 -1 -1 -1 0 1 1 2 2 3 3 3 3 3 4 4 5 6 7 7 8 8 8 8 8 8 7 7 7 8 9 9 9 10 10 10 10 11 11 11 11 11 11 11
-0 -1 -1 -0 -0 -0 -0 -0 -0 -0 0 -0 -0 -0 0 1 2 2 3 3 3 3 3 4 4 5 6 7 8 8 9 9 9 9 9 9 9 8 8 9 9 10 10 10 11 11 11 11 12 11 11 11 11 11
0 -0 -1 -0 -0 -0 0 0 1 1 1 1 0 1 2 2 3 3 3 3 3 3 3 4 5 6 7 8 9 9 9 10 10 10 10 10 10 10 9 9 9 10 10 10 11 11 11 11 11 11 11 11 11 11
-0 -0 -1 -0 -0 0 0 1 1 2 2 2 2 2 3 3 3 3 3 3 3 4 5 6 6 7 8 9 9 10 10 10 10 10 10 10 11 11 10 10 10 10 10 10 10 11 11 11 11 11 11 11 11 11
-1 -1 -1 -0 0 0 1 1 1 2 2 2 3 3 3 3 3 3 4 5 5 6 6 7 8 8 9 9 9 10 10 11 11 11 11 12 12 12 11 11 11 11 11 10 10 11 11 11 11 11 11 11 11 11
-0 -0 -0 -0 -0 0 0 1 1 1 2 2 2 3 3 3 3 4 5 6 6 7 7 8 8 8 9 9 10 10 10 11 11 11 12 13 12 12 12 12 11 11 11 11 11 11 11 11 10 10 10 10 10 10
0 1 0 0 -0 -1 -1 -0 -0 0 1 1 1 2 2 2 3 4 5 6 7 7 8 8 8 8 9 9 10 10 10 11 11 11 12 12 12 12 12 12 12 12 11 11 11 11 10 10 10 10 10 9 9 9
1 1 1 0 -0 -1 -1 -1 -1 -0 0 1 1 1 2 3 3 4 5 6 7 8 8 8 8 8 9 10 10 10 10 10 11 11 12 12 12 12 12 12 12 12 11 11 11 10 10 10 10 10 9 9 9 9